• In Belarus
  • List of Countries
  • For 7 days
  • Water Temperature
  • Satellite Maps
  • Weather Map
  • Weather Widgets
  • user-avatar
    Login

    Hourly Weather Chandrapur

    Today, 21 November, Wednesday

    Time Temperature Precipitation Wind Pressure Humidity
    00:00 +25°C° 0 mm 1 mps 745 mmHg 51%
    01:00 +24°C° 0 mm 1 mps 745 mmHg 53%
    02:00 +24°C° 0 mm 1 mps 745 mmHg 54%
    03:00 +23°C° 0 mm 1 mps 745 mmHg 55%
    04:00 +23°C° 0 mm 1 mps 745 mmHg 56%
    05:00 +22°C° 0 mm 1 mps 745 mmHg 59%
    06:00 +24°C° 0 mm 1 mps 745 mmHg 56%
    07:00 +25°C° 0 mm 1 mps 746 mmHg 53%
    08:00 +26°C° 0 mm 1 mps 746 mmHg 50%
    09:00 +29°C° 0 mm 2 mps 746 mmHg 44%
    10:00 +31°C° 0 mm 2 mps 746 mmHg 38%
    11:00 +34°C° 0 mm 2 mps 745 mmHg 33%
    12:00 +35°C° 0 mm 2 mps 745 mmHg 31%
    13:00 +35°C° 0 mm 3 mps 744 mmHg 29%
    14:00 +36°C° 0 mm 3 mps 743 mmHg 27%
    15:00 +34°C° 0 mm 2 mps 743 mmHg 31%
    16:00 +31°C° 0 mm 2 mps 743 mmHg 35%
    17:00 +29°C° 0 mm 2 mps 743 mmHg 39%
    18:00 +28°C° 0 mm 2 mps 744 mmHg 40%
    19:00 +27°C° 0 mm 1 mps 744 mmHg 41%
    20:00 +26°C° 0 mm 1 mps 745 mmHg 42%
    21:00 +26°C° 0 mm 1 mps 745 mmHg 43%
    22:00 +25°C° 0 mm 1 mps 745 mmHg 45%
    23:00 +24°C° 0 mm 1 mps 745 mmHg 46%

    Tomorrow, 22 November, Thursday

    Time Temperature Precipitation Wind Pressure Humidity
    00:00 +24°C° 0 mm 1 mps 745 mmHg 48%
    01:00 +23°C° 0 mm 1 mps 744 mmHg 49%
    02:00 +23°C° 0 mm 1 mps 744 mmHg 51%
    03:00 +22°C° 0 mm 1 mps 744 mmHg 53%
    04:00 +22°C° 0 mm 1 mps 745 mmHg 54%
    05:00 +22°C° 0 mm 1 mps 745 mmHg 56%
    06:00 +23°C° 0 mm 1 mps 746 mmHg 56%
    07:00 +24°C° 0 mm 1 mps 746 mmHg 55%
    08:00 +25°C° 0 mm 1 mps 747 mmHg 55%
    09:00 +27°C° 0 mm 2 mps 747 mmHg 51%
    10:00 +29°C° 0 mm 2 mps 747 mmHg 47%
    11:00 +31°C° 0 mm 2 mps 747 mmHg 43%
    12:00 +32°C° 0 mm 2 mps 746 mmHg 41%
    13:00 +32°C° 0 mm 1 mps 745 mmHg 39%
    14:00 +33°C° 0 mm 1 mps 744 mmHg 37%
    15:00 +31°C° 0 mm 1 mps 744 mmHg 41%
    16:00 +30°C° 0 mm 1 mps 744 mmHg 45%
    17:00 +28°C° 0 mm 1 mps 744 mmHg 49%
    18:00 +27°C° 0 mm 1 mps 745 mmHg 50%
    19:00 +26°C° 0 mm 1 mps 745 mmHg 52%
    20:00 +26°C° 0 mm 1 mps 746 mmHg 53%
    21:00 +25°C° 0 mm 1 mps 746 mmHg 54%
    22:00 +25°C° 0 mm 1 mps 746 mmHg 54%
    23:00 +24°C° 0 mm 1 mps 746 mmHg 55%

    Day after tomorrow, 23 November, Friday

    Time Temperature Precipitation Wind Pressure Humidity
    00:00 +24°C° 0 mm 1 mps 746 mmHg 55%
    01:00 +23°C° 0 mm 1 mps 746 mmHg 56%
    02:00 +23°C° 0 mm 1 mps 745 mmHg 56%
    03:00 +22°C° 0 mm 1 mps 745 mmHg 57%
    04:00 +22°C° 0 mm 1 mps 746 mmHg 57%
    05:00 +21°C° 0 mm 1 mps 746 mmHg 58%
    06:00 +23°C° 0 mm 1 mps 746 mmHg 55%
    07:00 +24°C° 0 mm 1 mps 747 mmHg 53%
    08:00 +25°C° 0 mm 1 mps 748 mmHg 50%
    09:00 +27°C° 0 mm 1 mps 747 mmHg 45%
    10:00 +29°C° 0 mm 1 mps 747 mmHg 40%
    11:00 +32°C° 0 mm 2 mps 747 mmHg 35%
    12:00 +32°C° 0 mm 2 mps 746 mmHg 33%
    13:00 +34°C° 0 mm 2 mps 746 mmHg 30%
    14:00 +35°C° 0 mm 2 mps 745 mmHg 28%
    15:00 +32°C° 0 mm 2 mps 745 mmHg 32%
    16:00 +30°C° 0 mm 1 mps 745 mmHg 36%
    17:00 +28°C° 0 mm 1 mps 745 mmHg 40%
    18:00 +27°C° 0 mm 1 mps 745 mmHg 41%
    19:00 +26°C° 0 mm 1 mps 746 mmHg 43%
    20:00 +26°C° 0 mm 1 mps 747 mmHg 44%
    21:00 +25°C° 0 mm 1 mps 747 mmHg 45%
    22:00 +25°C° 0 mm 1 mps 747 mmHg 46%
    23:00 +24°C° 0 mm 1 mps 747 mmHg 47%

    24 November, Saturday

    Time Temperature Precipitation Wind Pressure Humidity
    00:00 +23°C° 0 mm 1 mps 746 mmHg 48%
    01:00 +23°C° 0 mm 1 mps 746 mmHg 49%
    02:00 +22°C° 0 mm 1 mps 746 mmHg 51%
    03:00 +22°C° 0 mm 1 mps 746 mmHg 51%
    04:00 +21°C° 0 mm 1 mps 746 mmHg 52%
    05:00 +21°C° 0 mm 1 mps 746 mmHg 52%
    06:00 +22°C° 0 mm 1 mps 747 mmHg 49%
    07:00 +24°C° 0 mm 1 mps 747 mmHg 46%
    08:00 +25°C° 0 mm 2 mps 748 mmHg 44%
    09:00 +28°C° 0 mm 2 mps 748 mmHg 39%
    10:00 +30°C° 0 mm 2 mps 748 mmHg 34%
    11:00 +32°C° 0 mm 2 mps 747 mmHg 29%
    12:00 +34°C° 0 mm 2 mps 747 mmHg 28%
    13:00 +34°C° 0 mm 2 mps 746 mmHg 26%
    14:00 +35°C° 0 mm 2 mps 745 mmHg 25%
    15:00 +32°C° 0 mm 2 mps 745 mmHg 29%
    16:00 +30°C° 0 mm 2 mps 745 mmHg 33%
    17:00 +28°C° 0 mm 2 mps 745 mmHg 37%
    18:00 +27°C° 0 mm 2 mps 745 mmHg 38%
    19:00 +26°C° 0 mm 1 mps 746 mmHg 39%
    20:00 +25°C° 0 mm 1 mps 746 mmHg 40%
    21:00 +25°C° 0 mm 1 mps 746 mmHg 40%
    22:00 +24°C° 0 mm 1 mps 746 mmHg 41%
    23:00 +24°C° 0 mm 1 mps 746 mmHg 42%

    25 November, Sunday

    Time Temperature Precipitation Wind Pressure Humidity
    00:00 +23°C° 0 mm 1 mps 746 mmHg 42%
    01:00 +22°C° 0 mm 1 mps 745 mmHg 43%
    02:00 +21°C° 0 mm 1 mps 745 mmHg 43%
    03:00 +21°C° 0 mm 1 mps 745 mmHg 43%
    04:00 +20°C° 0 mm 1 mps 745 mmHg 42%
    05:00 +20°C° 0 mm 1 mps 745 mmHg 42%
    06:00 +21°C° 0 mm 1 mps 746 mmHg 40%
    07:00 +23°C° 0 mm 1 mps 747 mmHg 37%
    08:00 +24°C° 0 mm 1 mps 747 mmHg 35%
    09:00 +27°C° 0 mm 2 mps 747 mmHg 31%
    10:00 +29°C° 0 mm 2 mps 747 mmHg 27%
    11:00 +31°C° 0 mm 2 mps 746 mmHg 24%
    12:00 +32°C° 0 mm 2 mps 745 mmHg 22%
    13:00 +32°C° 0 mm 2 mps 744 mmHg 21%
    14:00 +34°C° 0 mm 2 mps 743 mmHg 20%
    15:00 +31°C° 0 mm 2 mps 743 mmHg 24%
    16:00 +29°C° 0 mm 2 mps 743 mmHg 27%
    17:00 +27°C° 0 mm 1 mps 743 mmHg 31%
    18:00 +26°C° 0 mm 1 mps 744 mmHg 31%
    19:00 +25°C° 0 mm 1 mps 744 mmHg 32%
    20:00 +24°C° 0 mm 1 mps 745 mmHg 32%
    21:00 +23°C° 0 mm 1 mps 745 mmHg 32%
    22:00 +23°C° 0 mm 1 mps 745 mmHg 33%
    23:00 +22°C° 0 mm 1 mps 745 mmHg 34%

    26 November, Monday

    Time Temperature Precipitation Wind Pressure Humidity
    00:00 +21°C° 0 mm 1 mps 744 mmHg 35%
    01:00 +21°C° 0 mm 1 mps 744 mmHg 36%
    02:00 +20°C° 0 mm 1 mps 744 mmHg 37%
    03:00 +20°C° 0 mm 1 mps 744 mmHg 38%
    04:00 +19°C° 0 mm 1 mps 744 mmHg 40%
    05:00 +19°C° 0 mm 1 mps 744 mmHg 41%
    06:00 +20°C° 0 mm 1 mps 745 mmHg 39%
    07:00 +22°C° 0 mm 1 mps 745 mmHg 38%
    08:00 +23°C° 0 mm 1 mps 746 mmHg 36%
    09:00 +26°C° 0 mm 2 mps 746 mmHg 32%
    10:00 +28°C° 0 mm 2 mps 745 mmHg 28%
    11:00 +31°C° 0 mm 2 mps 745 mmHg 25%
    12:00 +31°C° 0 mm 2 mps 744 mmHg 23%
    13:00 +32°C° 0 mm 2 mps 743 mmHg 21%
    14:00 +34°C° 0 mm 2 mps 742 mmHg 19%
    15:00 +31°C° 0 mm 2 mps 743 mmHg 23%
    16:00 +28°C° 0 mm 2 mps 743 mmHg 27%
    17:00 +26°C° 0 mm 1 mps 743 mmHg 31%
    18:00 +25°C° 0 mm 1 mps 743 mmHg 31%
    19:00 +24°C° 0 mm 1 mps 744 mmHg 32%
    20:00 +23°C° 0 mm 1 mps 745 mmHg 32%
    21:00 +23°C° 0 mm 1 mps 745 mmHg 33%
    22:00 +22°C° 0 mm 1 mps 744 mmHg 34%
    23:00 +22°C° 0 mm 1 mps 744 mmHg 35%
    Show more